date,time,DOY,Ta_1_1_1,Pa_1_1_1,RH_1_1_1,LWin_1_1_1,LWout_1_1_1,SWin_1_1_1,SWout_1_1_1,PPFD_1_1_1,MWS_1_1_1,WD_1_1_1,SWC_1_1_1,Ts_1_1_1
[yyyy-mm-dd],[HH:MM],[ddd.ddd],[K],[Pa],[%],[W+1m-2],[W+1m-2],[W+1m-2],[W+1m-2],[µmol+1m-2s-1],[m+1s-1],[deg],[m+3m-3],[K]
2018-02-09,00:30,40.020,257.45500000000004,95336.633333333331,53.654333333333312,240.60933333333335,177.20833333333337,1.0826666666666667,-3.7816666666666658,3.00000000000000006E-003,1.6633333333333331,326.58966666666669,0.25999999999999984,273.10966666666661
2018-02-09,01:00,40.041,256.97366666666670,95379.800000000003,56.575666666666670,238.78700000000009,176.41800000000003,1.2089999999999999,-3.3689999999999998,3.00000000000000006E-003,2.9933333333333323,312.65533333333332,0.25999999999999984,273.10733333333337
2018-02-09,01:30,40.062,256.01866666666666,95381.866666666669,62.104333333333336,237.00399999999999,174.17966666666669,0.77866666666666684,-3.5323333333333329,0.0000000000000000,2.9100000000000010,321.24399999999997,0.25999999999999984,273.11166666666668
2018-02-09,02:00,40.083,255.44866666666670,95384.800000000003,65.424333333333323,234.08633333333333,174.29733333333337,0.93599999999999983,-3.5313333333333334,-1.00000000000000002E-003,1.7400000000000004,336.56666666666666,0.25999999999999984,273.10800000000000
2018-02-09,02:30,40.104,255.31299999999999,95388.933333333334,67.090000000000003,232.88766666666666,182.67633333333339,0.92333333333333334,-2.7106666666666670,0.0000000000000000,1.5266666666666666,275.00000000000000,0.25999999999999984,273.10633333333334
2018-02-09,03:00,40.124,255.55900000000008,95411.800000000003,68.049666666666667,233.56433333333334,195.81933333333339,0.67433333333333334,-2.0319999999999996,1.00000000000000002E-003,1.0166666666666668,334.97866666666670,0.25999999999999984,273.10600000000005
2018-02-09,03:30,40.145,256.43633333333338,95448.466666666660,65.285333333333341,234.73966666666664,208.65300000000005,1.1916666666666667,-0.91233333333333322,-3.00000000000000006E-003,0.94333333333333336,277.14366666666666,0.25999999999999984,273.11066666666670
2018-02-09,04:00,40.166,256.15866666666665,95464.566666666666,67.102333333333334,235.94966666666667,207.81666666666669,0.73133333333333317,-1.2469999999999997,1.00000000000000002E-003,1.9233333333333329,255.62300000000002,0.25999999999999984,273.10400000000004
2018-02-09,04:30,40.187,255.84766666666667,95488.433333333334,68.317999999999984,235.11266666666663,209.16266666666661,0.39433333333333320,-1.2573333333333332,1.00000000000000002E-003,1.9700000000000002,207.05533333333332,0.25999999999999984,273.10766666666666
2018-02-09,05:00,40.208,255.82100000000005,95485.866666666669,68.577666666666644,235.50200000000001,210.38100000000000,0.46333333333333326,-1.1260000000000003,1.00000000000000002E-003,2.4100000000000006,216.57766666666666,0.25999999999999984,273.10666666666663
2018-02-09,05:30,40.229,255.80766666666665,95471.433333333334,67.615333333333339,237.80566666666667,220.12766666666667,0.15666666666666668,-0.94633333333333325,-1.00000000000000002E-003,2.6066666666666669,232.07766666666666,0.25999999999999984,273.11033333333330
2018-02-09,06:00,40.249,255.67766666666668,95477.433333333334,65.949333333333342,239.65433333333337,227.96100000000004,0.22100000000000003,-0.50799999999999979,0.0000000000000000,3.1200000000000001,247.93333333333334,0.25999999999999984,273.10833333333335
2018-02-09,06:30,40.270,255.72766666666669,95471.000000000000,63.889333333333347,241.81500000000000,230.53200000000001,0.12100000000000004,-0.53633333333333333,1.00000000000000002E-003,3.5866666666666673,257.57800000000003,0.25999999999999984,273.10433333333344
2018-02-09,07:00,40.291,255.31566666666683,95467.466666666660,65.677000000000007,241.58533333333327,227.71733333333333,7.29999999999999954E-002,-0.66099999999999992,3.00000000000000006E-003,4.3766666666666660,271.88866666666667,0.25999999999999984,273.10466666666673
2018-02-09,07:30,40.312,255.21233333333342,95470.533333333340,69.503333333333330,241.08499999999998,222.71033333333335,0.23833333333333342,-0.80866666666666664,-2.00000000000000004E-003,3.9433333333333334,287.86700000000002,0.25999999999999984,273.10899999999998
2018-02-09,08:00,40.333,254.99466666666669,95497.533333333340,72.286666666666662,241.09800000000004,231.05300000000000,0.16166666666666668,-0.48066666666666669,-1.00000000000000002E-003,3.5033333333333334,297.28866666666664,0.25999999999999984,273.10866666666669
2018-02-09,08:30,40.354,254.93899999999999,95517.666666666672,73.600333333333325,241.14766666666662,232.93899999999996,0.17799999999999999,-0.36866666666666664,0.0000000000000000,2.7833333333333337,300.66633333333334,0.25999999999999984,273.10433333333333
2018-02-09,09:00,40.374,254.86999999999992,95505.633333333331,74.516666666666652,240.99366666666668,230.94000000000000,0.20066666666666672,-0.41666666666666663,-1.00000000000000002E-003,3.1633333333333336,292.63366666666667,0.25999999999999984,273.10633333333334
2018-02-09,09:30,40.395,254.93233333333328,95501.399999999994,75.818333333333314,240.48733333333331,222.35100000000006,0.26533333333333337,-0.82766666666666677,1.00000000000000002E-003,3.1666666666666670,286.83299999999997,0.25999999999999984,273.10233333333338
2018-02-09,10:00,40.416,254.73666666666668,95474.533333333340,76.140666666666661,239.23599999999996,216.09866666666665,0.29866666666666664,-1.0850000000000000,4.00000000000000008E-003,3.0166666666666666,295.06666666666666,0.25999999999999984,273.10499999999996
2018-02-09,10:30,40.437,254.48233333333332,95448.533333333340,76.359333333333339,238.17433333333335,212.89566666666664,0.26766666666666661,-1.2186666666666668,0.0000000000000000,2.7533333333333343,309.50000000000000,0.25999999999999984,273.10900000000004
2018-02-09,11:00,40.458,254.18433333333343,95443.233333333337,77.080666666666673,236.64166666666671,209.94633333333334,0.32866666666666666,-1.4416666666666667,2.00000000000000004E-003,2.6633333333333331,321.47833333333335,0.25999999999999984,273.10599999999994
2018-02-09,11:30,40.479,253.91766666666672,95464.133333333331,77.419000000000011,235.40733333333327,205.70066666666671,0.31199999999999994,-1.8079999999999998,5.00000000000000010E-003,2.6666666666666665,326.57833333333332,0.25999999999999984,273.09766666666667
2018-02-09,12:00,40.499,253.77566666666664,95460.566666666666,76.711333333333357,233.38500000000002,199.57633333333339,0.40766666666666668,-2.4700000000000002,0.0000000000000000,3.2166666666666672,333.65633333333335,0.25999999999999984,273.10900000000004
2018-02-09,12:30,40.520,253.66666666666683,95460.133333333331,76.652333333333345,229.71299999999999,190.08500000000001,0.72499999999999998,-3.8879999999999999,0.0000000000000000,2.5033333333333325,335.59933333333333,0.25999999999999984,273.10033333333342
2018-02-09,13:00,40.541,253.30166666666679,95469.000000000000,77.151333333333341,227.89066666666670,193.05566666666670,0.81599999999999995,-3.9856666666666669,0.51733333333333342,1.9533333333333329,235.27733333333333,0.25966666666666655,273.09833333333341
2018-02-09,13:30,40.562,253.10866666666666,95505.100000000006,77.037333333333336,226.66000000000003,195.92166666666665,6.0270000000000001,14.721666666666668,20.673000000000002,1.7600000000000002,296.17866666666669,0.25999999999999984,273.10266666666672
2018-02-09,14:00,40.583,253.25433333333331,95539.233333333337,76.540000000000020,228.93166666666673,202.26566666666668,14.754333333333335,71.786333333333332,97.215999999999994,1.1866666666666665,290.10966666666661,0.25999999999999984,273.09900000000005
2018-02-09,14:30,40.604,253.48533333333336,95533.966666666660,75.288666666666671,234.42966666666669,207.05599999999998,30.837000000000000,186.58266666666668,246.63499999999996,1.2266666666666666,306.03333333333336,0.25999999999999984,273.10066666666677
2018-02-09,15:00,40.624,253.97466666666671,95526.633333333331,75.243333333333339,239.26133333333331,208.30999999999997,40.541666666666671,264.79000000000002,386.49733333333336,0.97666666666666657,253.57800000000000,0.25999999999999984,273.10266666666672
2018-02-09,15:30,40.645,254.42833333333337,95524.633333333331,73.377333333333340,242.25900000000004,203.38500000000002,51.141333333333321,349.68600000000004,532.93366666666668,1.1666666666666665,213.16600000000000,0.25999999999999984,273.09666666666669
2018-02-09,16:00,40.666,254.82233333333338,95525.100000000006,68.035999999999987,245.26133333333334,196.27766666666665,58.917333333333339,368.28466666666674,600.94166666666672,2.2766666666666668,260.96633333333335,0.25999999999999984,273.10100000000006
2018-02-09,16:30,40.687,255.12366666666665,95521.199999999997,63.733333333333334,245.68166666666670,188.81166666666670,72.384999999999991,440.04500000000007,736.54566666666676,3.7199999999999989,285.73333333333335,0.25999999999999984,273.09600000000006
2018-02-09,17:00,40.708,255.70533333333336,95521.533333333340,60.335999999999999,251.15400000000000,190.95033333333333,88.403999999999982,527.73633333333362,923.22133333333329,3.5600000000000009,268.03266666666667,0.25333333333333330,273.09833333333336
2018-02-09,17:30,40.729,256.23666666666668,95500.399999999994,57.869000000000000,253.08566666666658,187.93133333333336,85.912666666666681,502.53633333333335,925.40600000000006,2.8100000000000001,270.81033333333329,0.25000000000000000,273.09600000000012
2018-02-09,18:00,40.749,256.93700000000001,95454.666666666672,55.109999999999999,256.06166666666667,187.26400000000001,88.428666666666672,532.83599999999990,995.20000000000027,2.5566666666666671,247.40000000000001,0.25000000000000000,273.09800000000007
2018-02-09,18:30,40.770,257.58433333333335,95409.433333333334,52.584666666666664,258.85133333333334,189.00166666666669,87.935999999999979,537.42100000000016,1011.7030000000002,2.6599999999999993,250.35466666666665,0.25000000000000000,273.09600000000006
2018-02-09,19:00,40.791,258.45099999999996,95353.433333333334,49.790666666666660,262.45833333333331,190.81199999999998,85.336666666666673,527.01033333333339,1001.2309999999998,2.0666666666666664,234.86599999999999,0.25000000000000000,273.09600000000012
2018-02-09,19:30,40.812,258.83100000000007,95298.066666666666,48.776666666666657,262.93633333333332,190.93833333333333,82.229333333333344,503.00999999999999,959.02666666666664,2.6933333333333342,226.98900000000000,0.25000000000000000,273.09966666666674
2018-02-09,20:00,40.833,259.30000000000001,95257.733333333337,47.396333333333331,263.47766666666666,191.00133333333332,74.209999999999994,465.72333333333324,889.95699999999988,2.8033333333333332,217.41133333333335,0.25000000000000000,273.09766666666678
2018-02-09,20:30,40.854,259.87633333333349,95233.433333333334,46.427000000000007,263.90333333333331,190.61966666666666,62.391000000000005,416.06166666666667,792.95900000000006,3.3400000000000003,217.39966666666666,0.25000000000000000,273.09433333333340
2018-02-09,21:00,40.874,260.22866666666670,95213.966666666660,44.739333333333327,263.64133333333336,189.42200000000003,50.974666666666671,353.95033333333328,672.32499999999993,3.2999999999999998,234.85566666666668,0.25000000000000000,273.09366666666682
2018-02-09,21:30,40.895,260.58566666666678,95191.300000000003,44.171666666666667,263.42466666666667,188.03033333333335,41.132666666666658,282.24566666666669,533.07533333333333,2.7366666666666668,219.02199999999999,0.25000000000000000,273.09533333333343
2018-02-09,22:00,40.916,260.66133333333335,95178.366666666669,43.454666666666668,261.75033333333334,185.44099999999997,31.253666666666671,205.63766666666666,383.63433333333336,3.2066666666666679,215.52233333333331,0.25000000000000000,273.09366666666671
2018-02-09,22:30,40.937,260.51333333333321,95152.866666666669,43.013333333333343,259.27499999999998,181.86933333333337,21.982666666666667,126.97099999999999,232.72833333333335,3.5000000000000000,215.54533333333336,0.25000000000000000,273.09533333333337
2018-02-09,23:00,40.958,260.31999999999999,95153.466666666660,43.167666666666669,255.86199999999997,180.28966666666668,11.813999999999998,52.748000000000012,97.018666666666661,3.1633333333333331,218.63266666666667,0.25000000000000000,273.09600000000006
2018-02-09,23:30,40.979,259.80800000000005,95147.866666666669,44.305333333333330,251.13133333333334,178.95033333333328,3.0673333333333330,3.7906666666666666,14.470333333333334,2.8900000000000001,210.57766666666666,0.25000000000000000,273.09533333333337
2018-02-10,00:00,41.000,258.89866666666666,95143.000000000000,48.318000000000005,247.25466666666662,177.39399999999998,1.0663333333333331,-3.4270000000000000,0.22800000000000004,3.1000000000000005,199.71133333333333,0.25000000000000000,273.08833333333337
